Terminal Aerodrome Forecast
Issued by NWS State College, PA

Home | Current Version | Previous Version | Text Only | Print | Product List | Glossary On
Versions: 1 2 3 4 5 6 7 8 9 10 11 12 13 14 15 16 17 18 19 20 21 22 23 24 25 26 27 28 29 30 31 32 33 34 35 36 37 38 39 40 41 42 43 44 45 46 47 48 49 50
000
FTUS41 KCTP 301157
TAFMDT
TAF
KMDT 301157Z 3012/3112 30007KT 4SM -SN VCSH BKN030 OVC060
     FM301400 32014G25KT P6SM BKN050
     FM302100 31020G30KT P6SM BKN070
     FM310100 31010KT P6SM SKC=

USA.gov is the U.S. government's official web portal to all federal, state and local government web resources and services.